When you browse on this site, cookies collect data to enhance your experience and personalize the content and advertising you see.
Visit our Privacy Policy to learn more. By continuing to use the site, you agree to this use of cookies and data.
  • In Hungary
  • List of Countries
  • For 7 days
  • Water Temperature
  • Weather Map
  • News
  • Weather Widgets
  • user-avatar
    Login

    Hourly Weather Nizhnie Lemezy

    Today, 20 October, Sunday

    Time Temperature Precipitation Wind Pressure Humidity
    00:00 +1°C° 0 mm 1 mps 762 mmHg 76%
    01:00 +1°C° 0 mm 1 mps 763 mmHg 76%
    02:00 +1°C° 0 mm 1 mps 763 mmHg 75%
    03:00 +1°C° 0 mm 1 mps 763 mmHg 75%
    04:00 +1°C° 0 mm 1 mps 763 mmHg 75%
    05:00 +1°C° 0 mm 1 mps 763 mmHg 74%
    06:00 0°C° 0 mm 1 mps 764 mmHg 74%
    07:00 0°C° 0 mm 1 mps 764 mmHg 74%
    08:00 +1°C° 0 mm 1 mps 764 mmHg 68%
    09:00 +2°C° 0 mm 1 mps 764 mmHg 62%
    10:00 +3°C° 0 mm 1 mps 764 mmHg 55%
    11:00 +4°C° 0 mm 1 mps 764 mmHg 53%
    12:00 +4°C° 0 mm 2 mps 764 mmHg 51%
    13:00 +4°C° 0 mm 2 mps 763 mmHg 49%
    14:00 +5°C° 0 mm 1 mps 763 mmHg 53%
    15:00 +5°C° 0 mm 1 mps 764 mmHg 56%
    16:00 +4°C° 0 mm 1 mps 764 mmHg 60%
    17:00 +4°C° 0 mm 1 mps 764 mmHg 63%
    18:00 +3°C° 0 mm 1 mps 764 mmHg 65%
    19:00 +2°C° 0 mm 1 mps 764 mmHg 68%
    20:00 +1°C° 0 mm 2 mps 764 mmHg 68%
    21:00 +1°C° 0 mm 2 mps 763 mmHg 67%
    22:00 -1°C° 0 mm 2 mps 763 mmHg 67%
    23:00 +1°C° 0 mm 2 mps 763 mmHg 65%

    Tomorrow, 21 October, Monday

    Time Temperature Precipitation Wind Pressure Humidity
    00:00 0°C° 0 mm 3 mps 763 mmHg 63%
    01:00 0°C° 0 mm 3 mps 763 mmHg 61%
    02:00 -1°C° 0 mm 3 mps 763 mmHg 62%
    03:00 -1°C° 0 mm 3 mps 763 mmHg 62%
    04:00 -1°C° 0 mm 3 mps 763 mmHg 63%
    05:00 -1°C° 0 mm 3 mps 763 mmHg 61%
    06:00 -1°C° 0 mm 3 mps 762 mmHg 60%
    07:00 -2°C° 0 mm 4 mps 762 mmHg 59%
    08:00 -1°C° 0 mm 4 mps 762 mmHg 59%
    09:00 -1°C° 0 mm 4 mps 762 mmHg 58%
    10:00 -1°C° 0 mm 4 mps 761 mmHg 58%
    11:00 0°C° 0.1 mm 4 mps 761 mmHg 61%
    12:00 0°C° 0.1 mm 4 mps 761 mmHg 63%
    13:00 0°C° 0.1 mm 4 mps 760 mmHg 66%
    14:00 0°C° 0.3 mm 4 mps 760 mmHg 69%
    15:00 0°C° 0.3 mm 4 mps 760 mmHg 72%
    16:00 0°C° 0.3 mm 4 mps 760 mmHg 75%
    17:00 0°C° 0.3 mm 4 mps 759 mmHg 75%
    18:00 0°C° 0.3 mm 4 mps 759 mmHg 75%
    19:00 +1°C° 0.3 mm 4 mps 759 mmHg 75%
    20:00 +1°C° 0 mm 4 mps 758 mmHg 72%
    21:00 +1°C° 0 mm 4 mps 758 mmHg 70%
    22:00 +1°C° 0 mm 5 mps 757 mmHg 67%
    23:00 +1°C° 0 mm 5 mps 756 mmHg 66%

    Day after tomorrow, 22 October, Tuesday

    Time Temperature Precipitation Wind Pressure Humidity
    00:00 +1°C° 0 mm 5 mps 756 mmHg 65%
    01:00 +1°C° 0 mm 6 mps 755 mmHg 64%
    02:00 +1°C° 0 mm 6 mps 754 mmHg 64%
    03:00 +1°C° 0 mm 6 mps 754 mmHg 64%
    04:00 +2°C° 0 mm 7 mps 753 mmHg 64%
    05:00 0°C° 1.2 mm 7 mps 752 mmHg 72%
    06:00 +1°C° 1.2 mm 6 mps 752 mmHg 80%
    07:00 +1°C° 1.2 mm 6 mps 751 mmHg 88%
    08:00 +1°C° 0.9 mm 6 mps 751 mmHg 89%
    09:00 +1°C° 0.9 mm 6 mps 751 mmHg 90%
    10:00 +2°C° 0.9 mm 6 mps 751 mmHg 91%
    11:00 +2°C° 0 mm 5 mps 751 mmHg 92%
    12:00 +3°C° 0 mm 4 mps 751 mmHg 92%
    13:00 +3°C° 0 mm 4 mps 751 mmHg 92%
    14:00 +4°C° 0 mm 3 mps 751 mmHg 93%
    15:00 +5°C° 0 mm 2 mps 752 mmHg 93%
    16:00 +5°C° 0 mm 2 mps 752 mmHg 93%
    17:00 +5°C° 0 mm 2 mps 752 mmHg 93%
    18:00 +6°C° 0 mm 1 mps 752 mmHg 92%
    19:00 +5°C° 0 mm 1 mps 753 mmHg 91%
    20:00 +4°C° 0 mm 2 mps 753 mmHg 89%
    21:00 +4°C° 0 mm 2 mps 753 mmHg 87%
    22:00 +4°C° 0 mm 2 mps 753 mmHg 84%
    23:00 +4°C° 0 mm 2 mps 753 mmHg 84%

    23 October, Wednesday

    Time Temperature Precipitation Wind Pressure Humidity
    00:00 +4°C° 0 mm 1 mps 753 mmHg 84%
    01:00 +4°C° 0 mm 1 mps 753 mmHg 83%
    02:00 +4°C° 0 mm 1 mps 754 mmHg 83%
    03:00 +4°C° 0 mm 1 mps 754 mmHg 84%
    04:00 +4°C° 0 mm 1 mps 754 mmHg 84%
    05:00 +4°C° 0 mm 1 mps 755 mmHg 85%
    06:00 +3°C° 0 mm 1 mps 755 mmHg 86%
    07:00 +3°C° 0 mm 1 mps 755 mmHg 88%
    08:00 +3°C° 0 mm 1 mps 755 mmHg 86%
    09:00 +4°C° 0 mm 1 mps 755 mmHg 84%
    10:00 +4°C° 0 mm 1 mps 755 mmHg 83%
    11:00 +5°C° 0 mm 1 mps 755 mmHg 80%
    12:00 +4°C° 0 mm 2 mps 755 mmHg 78%
    13:00 +4°C° 0 mm 2 mps 755 mmHg 75%
    14:00 +4°C° 0 mm 2 mps 755 mmHg 75%
    15:00 +5°C° 0 mm 1 mps 755 mmHg 75%
    16:00 +5°C° 0 mm 1 mps 755 mmHg 75%
    17:00 +4°C° 0 mm 1 mps 755 mmHg 78%
    18:00 +3°C° 0 mm 1 mps 755 mmHg 81%
    19:00 +3°C° 0 mm 1 mps 755 mmHg 84%
    20:00 +1°C° 0 mm 2 mps 755 mmHg 85%
    21:00 +1°C° 0 mm 2 mps 755 mmHg 85%
    22:00 +1°C° 0 mm 2 mps 755 mmHg 86%
    23:00 +1°C° 0 mm 2 mps 754 mmHg 87%

    24 October, Thursday

    Time Temperature Precipitation Wind Pressure Humidity
    00:00 +1°C° 0 mm 2 mps 754 mmHg 88%
    01:00 +1°C° 0 mm 3 mps 754 mmHg 89%
    02:00 +1°C° 0 mm 3 mps 753 mmHg 88%
    03:00 +1°C° 0 mm 3 mps 753 mmHg 87%
    04:00 +1°C° 0 mm 4 mps 753 mmHg 86%
    05:00 +1°C° 0.1 mm 4 mps 753 mmHg 87%
    06:00 +1°C° 0.1 mm 4 mps 752 mmHg 88%
    07:00 +3°C° 0.1 mm 4 mps 752 mmHg 89%
    08:00 +3°C° 0 mm 4 mps 752 mmHg 90%
    09:00 +3°C° 0 mm 4 mps 752 mmHg 91%
    10:00 +4°C° 0 mm 4 mps 752 mmHg 93%
    11:00 +4°C° 0.1 mm 4 mps 752 mmHg 93%
    12:00 +5°C° 0.1 mm 4 mps 751 mmHg 94%
    13:00 +5°C° 0.1 mm 4 mps 751 mmHg 94%
    14:00 +5°C° 0 mm 4 mps 751 mmHg 94%
    15:00 +5°C° 0 mm 4 mps 751 mmHg 93%
    16:00 +6°C° 0 mm 4 mps 751 mmHg 92%
    17:00 +6°C° 0 mm 4 mps 751 mmHg 92%
    18:00 +6°C° 0 mm 4 mps 751 mmHg 92%
    19:00 +7°C° 0 mm 4 mps 752 mmHg 92%
    20:00 +7°C° 0 mm 4 mps 752 mmHg 93%
    21:00 +7°C° 0 mm 4 mps 752 mmHg 93%
    22:00 +7°C° 0 mm 4 mps 752 mmHg 94%
    23:00 +8°C° 0 mm 3 mps 752 mmHg 94%

    25 October, Friday

    Time Temperature Precipitation Wind Pressure Humidity
    00:00 +9°C° 0 mm 3 mps 752 mmHg 95%
    01:00 +9°C° 0 mm 3 mps 752 mmHg 95%
    02:00 +9°C° 0 mm 3 mps 752 mmHg 95%
    03:00 +8°C° 0 mm 3 mps 752 mmHg 95%
    04:00 +8°C° 0 mm 3 mps 752 mmHg 95%
    05:00 +8°C° 0 mm 3 mps 753 mmHg 95%
    06:00 +8°C° 0 mm 3 mps 753 mmHg 95%
    07:00 +7°C° 0 mm 3 mps 753 mmHg 95%
    08:00 +7°C° 0 mm 4 mps 753 mmHg 92%
    09:00 +7°C° 0 mm 4 mps 753 mmHg 90%
    10:00 +8°C° 0 mm 4 mps 753 mmHg 88%
    11:00 +8°C° 0 mm 4 mps 753 mmHg 84%
    12:00 +10°C° 0 mm 4 mps 753 mmHg 81%
    13:00 +11°C° 0 mm 4 mps 753 mmHg 78%
    14:00 +11°C° 0 mm 4 mps 753 mmHg 78%
    15:00 +11°C° 0 mm 4 mps 753 mmHg 77%
    16:00 +11°C° 0 mm 4 mps 753 mmHg 76%
    17:00 +11°C° 0 mm 4 mps 753 mmHg 77%
    18:00 +11°C° 0 mm 4 mps 753 mmHg 78%
    19:00 +10°C° 0 mm 4 mps 754 mmHg 80%
    20:00 +10°C° 0 mm 4 mps 754 mmHg 81%
    21:00 +10°C° 0 mm 4 mps 754 mmHg 83%
    22:00 +10°C° 0 mm 4 mps 754 mmHg 84%
    23:00 +10°C° 0 mm 4 mps 754 mmHg 85%
    Show more